sat.trackr.live / text

‹ back to catalog

KORSAT-4

NORAD 66293 · 2025-248A

PAYLOAD ACTIVE UNKNOWN

§ Identity

Operator
Country
SKOR
Launch date
2025-11-02
Launch site
AFETR
Launch vehicle
Mass (kg)
RCS (m²)

External: N2YO · Heavens-Above · Gunter

§ Orbital elements

Epoch: 2026-09-20T14:40:39.743040Z

Period
96.08 min
Inclination
45.4097°
Eccentricity
0.0001481
Mean motion
14.98782864 rev/d
Perigee alt
569.6 km
Apogee alt
571.7 km
Semi-major
6,948.8 km
B*
1.7877e-4
RAAN
24.8298°
Arg perigee
281.0112°
Mean anomaly
79.0599°
Rev number
4,837

§ Raw data

KORSAT-41 66293U 25248A   26263.61157110  .00001958  00000+0  17877-3 0  99932 66293  45.4097  24.8298 0001481 281.0112  79.0599 14.98782864 48377

JSON: /api/v1/satellites/66293 · /tle

For live sub-satellite position, see the globe view (requires WebGL).

§ Visibility from observer

Set your observer location to see the next 7 days of passes ≥ 10°. The values pass through the URL so the page stays shareable.

No JS? Fill the form by hand. The geolocation button needs JavaScript.